Location: Colebrook
(42.0017°N, 73.0973°W)
Time: 15:34:26
(UTC-05:00)

Vanguard 2 - Pass Details

Date: 29 October 2021
Orbit: 554 x 2936 km, 32.9° (Epoch: 04 December)

Event Time Altitude Azimuth Distance (km) Brightness Sun altitude
Exits shadow 05:15:23 31° 229° (SW) 2,283 9.5 -24.0°
Maximum altitude 05:17:11 33° 207° (SSW) 2,032 9.4 -23.6°
Drops below altitude 10° 05:23:03 10° 144° (SE) 2,703 10.7 -22.6°
Sets 05:25:24 0° 134° (SE) 3,410 11.5 -22.1°
